User: anonymous   Login
Location: Unspecified
(0.0000°N, 0.0000°E)
Time: 15:04:19
(UTC+00:00)
Language:

AAUSAT 4 - Orbit

View from above orbital plane
View from above orbital plane
View from above satellite
View from above satellite

Ground track
Ground track

The orbit data is extracted from the following two-line orbital elements,

1 41460U 16025E   19078.68909805  .00002138  00000-0  11206-3 0  9996
2 41460  98.0981 161.6628 0158181 297.9260  60.6035 15.06912535158967
Epoch (UTC): 19 March 2019 16:32:18
Eccentricity: 0.0158181
inclination: 98.0981°
perigee height: 436 km
apogee height: 655 km
right ascension of ascending node: 161.6628°
argument of perigee: 297.9260°
revolutions per day: 15.06912535
mean anomaly at epoch: 60.6035°
orbit number at epoch: 15896

The dashed part of the orbit path shows where the satellite is in the earth's shadow,  

DLR